Regional Weather Roundup
Issued by NWS

Home | Current Version | Previous Version | Text Only | Print | Product List | Glossary On
Versions: 1 2 3 4 5 6 7 8 9 10 11 12 13 14 15 16 17 18 19 20 21 22 23 24 25 26 27
000
ASUS44 KBMX 211710
RWRAL

ALABAMA REGIONAL WEATHER ROUNDUP
NATIONAL WEATHER SERVICE BIRMINGHAM AL
1100 AM CST TUE FEB 21 2017

NOTE: "FAIR" INDICATES FEW OR NO CLOUDS BELOW 12,000 FEET
WITH NO SIGNIFICANT WEATHER AND/OR OBSTRUCTIONS TO VISIBILITY.

THE REMARK "TC" DENOTES TEMPERATURE IN DEGREES CELSIUS.

ALZ001>011-014-016>018-020-211800-
NORTH ALABAMA

CITY           SKY/WX    TMP DP  RH WIND       PRES   REMARKS
MUSCLE SHOALS  CLOUDY    67  53  61 S20G25    29.96F
HUNTSVILLE     CLOUDY    65  55  70 SE16      30.01F
DECATUR        CLOUDY    64  56  75 SE16      30.01R
HALEYVILLE     CLOUDY    61  56  83 SE12G21   29.99F
GADSDEN        LGT RAIN  59  55  88 SE3       30.06F
$$

ALZ012-013-022-023-030>036-040>044-211800-
WEST CENTRAL ALABAMA

CITY           SKY/WX    TMP DP  RH WIND       PRES   REMARKS
TUSCALOOSA     RAIN      59  57  93 E8        29.97F FOG
$$

ALZ015-024>027-033>036-040>044-211800-
CENTRAL ALABAMA

CITY           SKY/WX    TMP DP  RH WIND       PRES   REMARKS
BIRMINGHAM     CLOUDY    60  57  89 SE12G17   30.05F
MONTGOMERY     LGT RAIN  62  57  83 CALM      30.04F
SHELBY CO ARPT CLOUDY    61  59  93 SE8       30.04F FOG
MAXWELL AFB    LGT RAIN  60  60 100 N6        30.02F
GREENVILLE     RAIN      60  58  92 CALM      30.02S FOG
$$

ALZ019-021-028-029-037-038-045>048-211800-
EAST CENTRAL ALABAMA

CITY           SKY/WX    TMP DP  RH WIND       PRES   REMARKS
ANNISTON       CLOUDY    60  56  86 E6        30.05F
ALEXANDER CITY RAIN      57  56  96 CALM      30.05S
AUBURN         CLOUDY    63  56  78 E6        30.04F
$$

ALZ051>064-211800-
SOUTHWEST ALABAMA

CITY           SKY/WX    TMP DP  RH WIND       PRES   REMARKS
MOBILE         LGT RAIN  63  60  90 SE6       29.99S FOG
BROOKLEY FIELD RAIN      64  63  96 E13       29.98F FOG
EVERGREEN      HVY RAIN  60  58  92 E8        30.01F FOG
$$

ALZ049-050-065>069-211800-
SOUTHEAST ALABAMA

CITY           SKY/WX    TMP DP  RH WIND       PRES   REMARKS
DOTHAN         CLOUDY    67  60  78 SE9       30.03F
OZARK          CLOUDY    68  58  71 SE9       29.99S
TROY           LGT RAIN  61  59  93 N6        30.02F FOG
EUFAULA        CLOUDY    72  60  66 E3        30.00F
$$




USA.gov is the U.S. government's official web portal to all federal, state and local government web resources and services.